Hourly Data Report for December 29, 2017

TORONTO CITY
ONTARIO

43°40'00.000" N
79°24'00.000" W
112.50 m
6158355
71508
XTO

Download Data

Hourly Data (December 2017)
Hourly Data Report for December 29, 2017
TIME
LST
Temp Definition
°C
Dew Point Definition
°C
Rel Hum Definition
%
Precip. Amount Definition
mm

Wind Dir Definition
10's deg

Wind Spd Definition
km/h
Visibility Definition
km
Stn Press Definition
kPa
Hmdx Definition


Wind Chill Definition


Weather Definition


00:00 -13.4 -20.2 56 0.0 LegendMM LegendMM   101.73     LegendNANA
01:00 -13.2 -19.8 58 0.0 LegendMM LegendMM   101.61     LegendNANA
02:00 -13.2 -20.8 53 0.0 LegendMM LegendMM   101.55     LegendNANA
03:00 -13.2 -20.1 56 0.0 LegendMM LegendMM   101.51     LegendNANA
04:00 -13.0 -21.0 51 0.0 LegendMM LegendMM   101.43     LegendNANA
05:00 -13.0 -21.1 51 0.0 LegendMM LegendMM   101.34     LegendNANA
06:00 -13.7 -18.5 67 0.0 LegendMM LegendMM   101.29     LegendNANA
07:00 -13.8 -17.3 75 0.0 LegendMM LegendMM   101.26     LegendNANA
08:00 -14.2 -17.6 75 0.0 LegendMM LegendMM   101.22     LegendNANA
09:00 -13.9 -16.5 81 0.0 LegendMM LegendMM   101.19     LegendNANA
10:00 -13.2 -15.7 81 0.2 LegendMM LegendMM   101.19     LegendNANA
11:00 -11.6 -14.3 80 0.0 LegendMM LegendMM   101.16     LegendNANA
12:00 -10.1 -13.0 79 0.2 LegendMM LegendMM   101.08     LegendNANA
13:00 -9.2 -12.3 78 0.0 LegendMM LegendMM   100.99     LegendNANA
14:00 -8.0 -11.5 76 0.0 LegendMM LegendMM   100.90     LegendNANA
15:00 -7.4 -10.9 76 0.0 LegendMM LegendMM   100.86     LegendNANA
16:00 -7.4 -9.4 85 0.6 LegendMM LegendMM   100.84     LegendNANA
17:00 -8.6 -11.0 82 0.0 LegendMM LegendMM   100.90     LegendNANA
18:00 -9.4 -11.8 82 0.0 LegendMM LegendMM   100.87     LegendNANA
19:00 -10.4 -13.0 81 0.0 LegendMM LegendMM   100.89     LegendNANA
20:00 -10.6 -14.5 73 0.0 LegendMM LegendMM   100.89     LegendNANA
21:00 -10.9 -15.0 72 0.0 LegendMM LegendMM   100.82     LegendNANA
22:00 -10.7 -14.5 74 0.0 LegendMM LegendMM   100.74     LegendNANA
23:00 -10.3 -14.0 74 0.0 LegendMM LegendMM   100.67     LegendNANA

Notes on Data Quality.

Legend

  • E = Estimated
  • M = Missing
  • NA = Not Available*
  • [empty] = Indicates an unobserved value
Date modified: